sat.trackr.live / text

‹ back to catalog

ONEWEB-0561

NORAD 56710 · 2023-068A

PAYLOAD ACTIVE UNKNOWN

§ Identity

Operator
Country
UK
Launch date
2023-05-20
Launch site
AFWTR
Launch vehicle
Mass (kg)
RCS (m²)

Purposes: comms

External: N2YO · Heavens-Above · Gunter

§ Orbital elements

Epoch: 2026-05-24T22:34:03.482112Z

Period
109.03 min
Inclination
87.9175°
Eccentricity
0.0002077
Mean motion
13.20773308 rev/d
Perigee alt
1,180.2 km
Apogee alt
1,183.3 km
Semi-major
7,559.9 km
B*
1.0073e-4
RAAN
279.0779°
Arg perigee
88.5739°
Mean anomaly
271.5632°
Rev number
14,643

§ Raw data

ONEWEB-05611 56710U 23068A   26144.94031808  .00000054  00000+0  10073-3 0  99902 56710  87.9175 279.0779 0002077  88.5739 271.5632 13.20773308146433

JSON: /api/v1/satellites/56710 · /tle

For live sub-satellite position, see the globe view (requires WebGL).

§ Visibility from observer

Set your observer location to see the next 7 days of passes ≥ 10°. The values pass through the URL so the page stays shareable.

No JS? Fill the form by hand. The geolocation button needs JavaScript.